Location: Unspecified
(42.3650°N, 71.1030°W)
Time: 14:01:09
(UTC+00:00)

COSMOS 2251 DEB - Visible Passes

Search period start: 03 October 2024 00:00
Search period end: 13 October 2024 00:00
Orbit: 580 x 711 km, 74.0° (Epoch: 03 October)

Date Brightness Start Highest point End Pass type
(mag) Time Alt. Az. Time Alt. Az. Time Alt. Az.
08 Oct ? 01:24:17 10° N 01:24:25 11° N 01:24:25 11° N visible
09 Oct ? 00:11:59 10° NNE 00:12:07 10° NNE 00:12:07 10° NNE visible
10 Oct ? 00:36:32 10° N 00:37:31 15° N 00:37:31 15° N visible
11 Oct ? 01:01:47 10° NNW 01:02:57 18° NNW 01:02:57 18° NNW visible
11 Oct ? 23:48:57 10° NNE 23:50:42 17° NNE 23:50:42 17° NNE visible
12 Oct ? 01:27:30 10° NNW 01:28:24 15° NW 01:28:24 15° NW visible
